VE3HOA Weather Reports


time (UTC)temp
C
wind
direction
speed
KPH
gust
KPH
rain 1hr
cm
rain 24hr
cm
rain mn
cm
humidity
%
barometer
mb
20260510033548 11 231 9.7 19.3 0.00 0.08 0.08 87 1003.6
20260510033108 11 232 9.7 20.9 0.00 0.08 0.08 87 1003.5
20260510032549 11 231 9.7 20.9 0.00 0.08 0.08 88 1003.6
20260510032048 11 217 8.0 25.7 0.00 0.08 0.08 88 1003.7
20260510031554 11 191 8.0 25.7 0.00 0.08 0.08 88 1003.7
20260510031049 11 206 8.0 20.9 0.00 0.08 0.08 88 1003.6
20260510030548 11 221 4.8 19.3 0.00 0.08 0.08 88 1003.6
20260510025548 11 198 4.8 19.3 0.05 0.08 0.08 89 1003.4
20260510025049 11 194 8.0 17.7 0.08 0.08 0.08 89 1003.5
20260510024556 11 196 8.0 17.7 0.08 0.08 0.08 89 1003.3
20260510024048 11 190 6.4 22.5 0.08 0.08 0.08 88 1003.4
20260510023548 11 184 9.7 22.5 0.08 0.08 0.08 88 1003.3
20260510023053 11 172 8.0 24.1 0.08 0.08 0.08 88 1003.3
20260510022549 11 190 8.0 25.7 0.08 0.08 0.08 87 1003.3
20260510022050 11 175 8.0 25.7 0.08 0.08 0.08 87 1003.3
20260510021556 11 171 6.4 17.7 0.08 0.08 0.08 87 1003.3
20260510021047 11 185 8.0 17.7 0.08 0.08 0.08 86 1003.3
20260510020549 11 250 3.2 11.3 0.08 0.08 0.08 85 1003.3
20260510020053 11 176 3.2 14.5 0.08 0.08 0.08 83 1003.2
20260510015550 12 236 6.4 22.5 0.03 0.03 0.03 79 1003.3
20260510015049 12 216 9.7 20.9 0.00 0.00 0.00 76 1002.9
20260510014553 13 176 11.3 22.5 0.00 0.00 0.00 64 1002.8
20260510014049 13 178 11.3 24.1 0.00 0.00 0.00 63 1003.0
20260510013549 13 123 14.5 24.1 0.00 0.00 0.00 63 1002.7
20260510013054 13 101 9.7 24.1 0.00 0.00 0.00 62 1002.8
20260510012552 13 149 9.7 24.1 0.00 0.00 0.00 61 1002.8
20260510012052 13 164 11.3 24.1 0.00 0.00 0.00 61 1002.9
20260510011552 13 160 8.0 19.3 0.00 0.00 0.00 60 1002.9
20260510011047 13 148 9.7 16.1 0.00 0.00 0.00 60 1002.9
20260510010549 13 107 8.0 16.1 0.00 0.00 0.00 59 1002.9
20260510010055 13 146 6.4 17.7 0.00 0.00 0.00 58 1002.9
20260510005551 13 145 8.0 17.7 0.00 0.00 0.00 58 1003.0
20260510005049 13 148 8.0 17.7 0.00 0.00 0.00 57 1002.9
20260510004553 13 126 8.0 17.7 0.00 0.00 0.00 57 1002.9
20260510004048 13 152 6.4 16.1 0.00 0.00 0.00 55 1002.9
20260510003548 14 159 6.4 19.3 0.00 0.00 0.00 55 1002.9
20260510003059 14 166 9.7 19.3 0.00 0.00 0.00 55 1003.1
20260510002547 14 138 8.0 19.3 0.00 0.00 0.00 55 1003.0
20260510002048 14 144 9.7 22.5 0.00 0.00 0.00 55 1003.1
20260510001556 14 162 11.3 22.5 0.00 0.00 0.00 55 1003.1
20260510001049 15 156 8.0 22.5 0.00 0.00 0.00 54 1003.2
20260510000548 15 152 11.3 20.9 0.00 0.00 0.00 54 1003.3
20260510000053 15 167 9.7 25.7 0.00 0.00 0.00 53 1003.2
20260509235550 15 159 11.3 25.7 0.00 0.00 0.00 52 1003.4
20260509235048 15 169 9.7 25.7 0.00 0.00 0.00 51 1003.5
20260509234554 15 191 8.0 25.7 0.00 0.00 0.00 49 1003.5
20260509234049 15 205 11.3 25.7 0.00 0.00 0.00 48 1003.6
20260509233551 15 179 12.9 27.4 0.00 0.00 0.00 47 1003.6
20260509233054 15 173 12.9 27.4 0.00 0.00 0.00 46 1003.6
20260509232548 15 165 11.3 25.7 0.00 0.00 0.00 45 1003.7
20260509232051 15 138 11.3 25.7 0.00 0.00 0.00 45 1003.8
20260509231556 15 173 9.7 22.5 0.00 0.00 0.00 45 1004.0
20260509231048 15 179 9.7 25.7 0.00 0.00 0.00 45 1003.9
20260509230548 15 156 11.3 27.4 0.00 0.00 0.00 44 1003.9
20260509230059 15 169 8.0 27.4 0.00 0.00 0.00 44 1003.9
20260509225550 15 238 9.7 25.7 0.00 0.00 0.00 43 1003.8
20260509225052 15 169 8.0 25.7 0.00 0.00 0.00 42 1003.9
20260509224601 15 215 11.3 30.6 0.00 0.00 0.00 41 1003.9
20260509224052 15 178 8.0 32.2 0.00 0.00 0.00 41 1003.8
20260509223549 15 200 16.1 32.2 0.00 0.00 0.00 41 1003.8
20260509223058 16 244 9.7 20.9 0.00 0.00 0.00 43 1003.9
20260509222551 16 234 11.3 20.9 0.00 0.00 0.00 43 1003.8
20260509222048 16 155 6.4 32.2 0.00 0.00 0.00 43 1003.9
20260509221557 16 220 9.7 37.0 0.00 0.00 0.00 42 1003.8
20260509221047 16 163 11.3 37.0 0.00 0.00 0.00 41 1003.8
20260509220550 16 185 9.7 29.0 0.00 0.00 0.00 41 1003.7
20260509220107 16 212 8.0 29.0 0.00 0.00 0.00 40 1003.8
20260509215548 16 203 11.3 29.0 0.00 0.00 0.00 39 1003.8
20260509215049 16 229 9.7 24.1 0.00 0.00 0.00 39 1003.7
20260509214600 16 215 11.3 27.4 0.00 0.00 0.00 37 1003.7
20260509214048 16 178 12.9 29.0 0.00 0.00 0.00 37 1003.6
20260509213640 16 194 12.9 32.2 0.00 0.00 0.00 38 1003.7
20260509213122 16 211 9.7 32.2 0.00 0.00 0.00 37 1003.7
20260509212549 16 231 11.3 29.0 0.00 0.00 0.00 37 1003.9
20260509212052 16 223 11.3 30.6 0.00 0.00 0.00 36 1004.0
20260509211556 17 175 16.1 32.2 0.00 0.00 0.00 38 1003.8
20260509211049 17 229 11.3 33.8 0.00 0.00 0.00 38 1003.8
20260509210549 17 181 16.1 40.2 0.00 0.00 0.00 37 1003.9
20260509210104 18 186 16.1 40.2 0.00 0.00 0.00 36 1003.9
20260509205549 18 182 20.9 38.6 0.00 0.00 0.00 34 1003.9
20260509205048 18 192 14.5 41.8 0.00 0.00 0.00 37 1003.7
20260509204555 18 186 16.1 41.8 0.00 0.00 0.00 39 1003.7
20260509204049 18 209 9.7 29.0 0.00 0.00 0.00 39 1003.7
20260509203548 17 134 11.3 30.6 0.00 0.00 0.00 42 1003.8
20260509203054 17 192 11.3 30.6 0.00 0.00 0.00 41 1003.9
20260509202549 17 165 14.5 30.6 0.00 0.00 0.00 40 1004.0
20260509202049 17 147 14.5 35.4 0.00 0.00 0.00 39 1003.9
20260509201552 17 157 16.1 35.4 0.00 0.00 0.00 36 1003.9
20260509201048 18 180 19.3 35.4 0.00 0.00 0.00 35 1003.9
20260509200552 18 157 17.7 32.2 0.00 0.00 0.00 35 1003.9
20260509200100 18 176 19.3 37.0 0.00 0.00 0.00 34 1004.0
20260509195546 18 164 16.1 37.0 0.00 0.00 0.00 33 1004.2
20260509195050 18 198 12.9 33.8 0.00 0.00 0.00 33 1004.2
20260509194556 18 200 12.9 33.8 0.00 0.00 0.00 32 1004.2
20260509194047 18 232 9.7 33.8 0.00 0.00 0.00 31 1004.2
20260509193549 18 127 16.1 43.5 0.00 0.00 0.00 30 1004.2
20260509193055 18 183 14.5 43.5 0.00 0.00 0.00 31 1004.2
20260509192549 18 142 11.3 33.8 0.00 0.00 0.00 29 1004.3
20260509192048 18 197 19.3 33.8 0.00 0.00 0.00 30 1004.4
20260509191555 19 157 14.5 33.8 0.00 0.00 0.00 28 1004.5
20260509191049 19 99 17.7 37.0 0.00 0.00 0.00 27 1004.4
20260509190545 19 165 9.7 37.0 0.00 0.00 0.00 26 1004.6
20260509190057 18 136 14.5 40.2 0.00 0.00 0.00 26 1004.7
20260509185548 18 157 19.3 40.2 0.00 0.00 0.00 27 1004.7
20260509185048 19 133 19.3 38.6 0.00 0.00 0.00 26 1004.7
20260509184555 18 153 14.5 37.0 0.00 0.00 0.00 28 1004.9
20260509184046 18 157 20.9 37.0 0.00 0.00 0.00 27 1005.0
20260509183549 19 176 17.7 35.4 0.00 0.00 0.00 26 1004.9
20260509183058 18 172 12.9 30.6 0.00 0.00 0.00 29 1005.2
20260509182552 18 185 14.5 30.6 0.00 0.00 0.00 26 1005.3
20260509182048 18 170 12.9 30.6 0.00 0.00 0.00 27 1005.4
20260509181601 18 168 14.5 38.6 0.00 0.00 0.00 26 1005.5
20260509181049 18 164 22.5 38.6 0.00 0.00 0.00 27 1005.7
20260509180549 18 97 20.9 38.6 0.00 0.00 0.00 26 1005.5
20260509180100 18 140 9.7 32.2 0.00 0.00 0.00 29 1005.9
20260509175548 17 182 14.5 32.2 0.00 0.00 0.00 28 1005.8
20260509175048 18 170 12.9 37.0 0.00 0.00 0.00 28 1005.9
20260509174559 18 229 16.1 37.0 0.00 0.00 0.00 27 1006.1
20260509174050 17 135 16.1 37.0 0.00 0.00 0.00 28 1006.0
20260509173548 17 150 20.9 38.6 0.00 0.00 0.00 28 1006.2
20260509173058 17 185 19.3 46.7 0.00 0.00 0.00 29 1006.2
20260509172549 17 178 19.3 46.7 0.00 0.00 0.00 29 1006.2
20260509172052 18 137 19.3 41.8 0.00 0.00 0.00 28 1006.3
20260509171556 17 159 12.9 32.2 0.00 0.00 0.00 29 1006.1
20260509171050 17 163 11.3 33.8 0.00 0.00 0.00 30 1006.1
20260509170549 17 160 19.3 33.8 0.00 0.00 0.00 28 1006.3
20260509170055 17 205 11.3 37.0 0.00 0.00 0.00 28 1006.3
20260509165549 17 164 17.7 30.6 0.00 0.00 0.00 28 1006.4
20260509165048 17 178 16.1 33.8 0.00 0.00 0.00 30 1006.7
20260509164606 17 137 16.1 40.2 0.00 0.00 0.00 30 1006.7
20260509164053 17 179 17.7 40.2 0.00 0.00 0.00 31 1006.7
20260509163551 17 169 12.9 25.7 0.00 0.00 0.00 30 1006.8
20260509163057 17 160 11.3 25.7 0.00 0.00 0.00 30 1007.0
20260509162553 17 160 11.3 29.0 0.00 0.00 0.00 31 1007.1
20260509162050 16 155 16.1 30.6 0.00 0.00 0.00 31 1007.2
20260509161603 16 180 14.5 33.8 0.00 0.00 0.00 31 1007.4
20260509161054 16 202 19.3 33.8 0.00 0.00 0.00 31 1007.4
20260509160553 16 158 22.5 33.8 0.00 0.00 0.00 31 1007.4
20260509160052 16 167 16.1 33.8 0.00 0.00 0.00 32 1007.4
20260509155550 16 206 17.7 35.4 0.00 0.00 0.00 33 1007.6
20260509155050 16 145 17.7 35.4 0.00 0.00 0.00 33 1007.7
20260509154607 16 149 20.9 33.8 0.00 0.00 0.00 33 1007.7
20260509154048 16 236 11.3 32.2 0.00 0.00 0.00 32 1007.9
20260509153548 16 165 16.1 33.8 0.00 0.00 0.00 33 1008.0
20260509153103 16 186 12.9 38.6 0.00 0.00 0.00 34 1008.0
20260509152547 16 195 17.7 38.6 0.00 0.00 0.00 34 1008.1
20260509152049 16 183 12.9 32.2 0.00 0.00 0.00 36 1008.2
20260509151555 15 169 9.7 24.1 0.00 0.00 0.00 38 1008.3
20260509151048 15 182 12.9 27.4 0.00 0.00 0.00 39 1008.4
20260509150548 15 175 11.3 27.4 0.00 0.00 0.00 38 1008.3
20260509150055 15 175 14.5 29.0 0.00 0.00 0.00 36 1008.5
20260509145549 15 205 14.5 29.0 0.00 0.00 0.00 35 1008.5
20260509145049 15 188 8.0 25.7 0.00 0.00 0.00 38 1008.6
20260509144556 15 254 16.1 35.4 0.00 0.00 0.00 40 1008.5
20260509144053 15 163 14.5 35.4 0.00 0.00 0.00 39 1008.6
20260509143549 15 172 16.1 32.2 0.00 0.00 0.00 39 1008.6
20260509143054 15 202 9.7 27.4 0.00 0.00 0.00 40 1008.7
20260509142549 14 179 11.3 29.0 0.00 0.00 0.00 41 1008.7
20260509142050 14 187 12.9 35.4 0.00 0.00 0.00 40 1008.7
20260509141556 14 229 9.7 35.4 0.00 0.00 0.00 42 1008.8
20260509141052 14 172 11.3 30.6 0.00 0.00 0.00 41 1008.8
20260509140549 13 202 16.1 32.2 0.00 0.00 0.00 43 1008.9
20260509135547 13 155 14.5 33.8 0.00 0.00 0.00 44 1008.9
20260509135050 13 184 12.9 33.8 0.00 0.00 0.00 43 1008.8
20260509134552 13 178 9.7 25.7 0.00 0.00 0.00 45 1009.0
20260509134050 13 172 11.3 24.1 0.00 0.00 0.00 45 1008.9
20260509133549 13 167 9.7 24.1 0.00 0.00 0.00 49 1008.9
20260509133053 12 213 12.9 19.3 0.00 0.00 0.00 49 1009.1
20260509132548 12 178 9.7 19.3 0.00 0.00 0.00 49 1009.1
20260509132048 12 159 8.0 17.7 0.00 0.00 0.00 49 1009.2
20260509131551 12 173 6.4 17.7 0.00 0.00 0.00 49 1009.3
20260509131049 11 226 8.0 17.7 0.00 0.00 0.00 50 1009.3
20260509130551 11 207 8.0 16.1 0.00 0.00 0.00 50 1009.4
20260509130051 11 196 4.8 17.7 0.00 0.00 0.00 51 1009.0
20260509125549 11 211 6.4 19.3 0.00 0.00 0.00 52 1009.6
20260509125049 10 191 8.0 22.5 0.00 0.00 0.00 51 1009.6
20260509124549 10 171 11.3 22.5 0.00 0.00 0.00 52 1009.3
20260509124049 10 137 3.2 19.3 0.00 0.00 0.00 55 1009.4
20260509123550 10 161 6.4 19.3 0.00 0.00 0.00 55 1009.4
20260509123056 9 198 8.0 14.5 0.00 0.00 0.00 56 1009.4
20260509122550 -17 212 11.3 0.0 0.00 0.00 0.00 58 1009.3
20260509122324 8 182 6.4 16.1 0.00 0.00 0.00 58 1009.1
20260509121605 8 161 8.0 16.1 0.00 0.00 0.00 60 1009.2
20260509121049 7 190 8.0 16.1 0.00 0.00 0.00 61 1009.1
20260509120549 7 178 6.4 14.5 0.00 0.00 0.00 62 1009.2
20260509120112 7 155 4.8 16.1 0.00 0.00 0.00 63 1009.1
20260509115548 7 202 6.4 16.1 0.00 0.00 0.00 63 1009.1
20260509115049 6 195 6.4 16.1 0.00 0.00 0.00 65 1009.1
20260509114551 6 185 6.4 12.9 0.00 0.00 0.00 66 1009.2
20260509114049 6 192 4.8 12.9 0.00 0.00 0.00 67 1009.1
20260509113548 5 169 4.8 14.5 0.00 0.00 0.00 68 1009.1
20260509113056 5 160 6.4 16.1 0.00 0.00 0.00 69 1009.1
20260509112549 5 159 8.0 16.1 0.00 0.00 0.00 69 1009.0
20260509112049 5 174 8.0 16.1 0.00 0.00 0.00 69 1008.9
20260509111556 5 145 6.4 14.5 0.00 0.00 0.00 70 1009.0
20260509111049 4 162 8.0 14.5 0.00 0.00 0.00 70 1009.0
20260509110549 4 157 6.4 14.5 0.00 0.00 0.00 71 1008.9
20260509105551 3 164 6.4 12.9 0.00 0.00 0.00 72 1008.9
20260509105049 3 168 4.8 12.9 0.00 0.00 0.00 72 1008.9
20260509104556 3 165 4.8 11.3 0.00 0.00 0.00 72 1008.8
20260509104048 3 195 4.8 12.9 0.00 0.00 0.00 72 1008.8
20260509103548 3 160 4.8 12.9 0.00 0.00 0.00 72 1008.8
20260509103102 3 173 6.4 14.5 0.00 0.00 0.00 71 1008.7
20260509102549 3 179 8.0 16.1 0.00 0.00 0.00 71 1008.7
20260509102049 3 174 6.4 16.1 0.00 0.00 0.00 72 1008.7
20260509101601 3 161 6.4 14.5 0.00 0.00 0.00 72 1008.7
20260509101049 3 178 8.0 12.9 0.00 0.00 0.00 73 1008.7
20260509100548 2 152 6.4 12.9 0.00 0.00 0.00 74 1008.7
20260509100053 2 169 6.4 11.3 0.00 0.00 0.00 74 1008.7
20260509095548 2 175 6.4 11.3 0.00 0.00 0.00 74 1008.8
20260509095049 2 173 6.4 11.3 0.00 0.00 0.00 74 1008.8
20260509094552 2 169 6.4 12.9 0.00 0.00 0.00 74 1008.7
20260509094049 2 168 6.4 12.9 0.00 0.00 0.00 74 1008.7
20260509093549 2 147 4.8 11.3 0.00 0.00 0.00 74 1008.6
20260509093054 2 182 4.8 11.3 0.00 0.00 0.00 74 1008.6
20260509092552 2 168 4.8 11.3 0.00 0.00 0.00 73 1008.6
20260509092049 2 173 6.4 11.3 0.00 0.00 0.00 73 1008.6
20260509091622 2 172 4.8 11.3 0.00 0.00 0.00 73 1008.6
20260509091051 2 173 3.2 11.3 0.00 0.00 0.00 72 1008.6
20260509090553 2 196 4.8 11.3 0.00 0.00 0.00 72 1008.8
20260509090055 2 170 4.8 11.3 0.00 0.00 0.00 72 1008.7
20260509085549 2 184 4.8 12.9 0.00 0.00 0.00 72 1008.7
20260509085049 2 171 4.8 12.9 0.00 0.00 0.00 72 1008.7
20260509084554 2 189 4.8 11.3 0.00 0.00 0.00 72 1008.7
20260509084050 3 175 4.8 11.3 0.00 0.00 0.00 71 1008.7
20260509083551 3 161 4.8 12.9 0.00 0.00 0.00 71 1008.7
20260509083055 3 164 6.4 12.9 0.00 0.00 0.00 71 1008.7
20260509082550 2 184 6.4 11.3 0.00 0.00 0.00 71 1008.7
20260509082053 2 157 6.4 9.7 0.00 0.00 0.00 72 1008.8
20260509081552 2 164 4.8 9.7 0.00 0.00 0.00 72 1008.9
20260509081050 2 177 4.8 9.7 0.00 0.00 0.00 72 1008.9
20260509080551 2 141 4.8 9.7 0.00 0.00 0.00 72 1008.9
20260509080105 2 167 4.8 9.7 0.00 0.00 0.00 72 1008.9
20260509075549 2 173 4.8 9.7 0.00 0.00 0.00 72 1008.9
20260509075049 2 179 3.2 11.3 0.00 0.00 0.00 71 1008.9
20260509074554 2 175 4.8 11.3 0.00 0.00 0.00 71 1009.0
20260509074050 3 171 4.8 11.3 0.00 0.00 0.00 71 1009.0
20260509073549 3 169 4.8 11.3 0.00 0.00 0.00 71 1008.9
20260509073124 3 168 6.4 11.3 0.00 0.00 0.00 70 1009.0
20260509072553 3 184 6.4 11.3 0.00 0.00 0.00 70 1008.9
20260509072049 3 173 4.8 11.3 0.00 0.00 0.00 70 1008.9
20260509071551 3 169 6.4 11.3 0.00 0.00 0.00 69 1009.0
20260509071050 3 183 4.8 12.9 0.00 0.00 0.00 69 1009.1
20260509070552 3 155 6.4 12.9 0.00 0.00 0.00 69 1009.1
20260509070058 3 168 6.4 12.9 0.00 0.00 0.00 68 1008.9
20260509065549 3 199 4.8 12.9 0.00 0.00 0.00 68 1008.9
20260509065049 3 175 6.4 9.7 0.00 0.00 0.00 68 1009.0
20260509064551 3 144 4.8 9.7 0.00 0.00 0.00 67 1009.0
20260509064053 3 145 6.4 9.7 0.00 0.00 0.00 67 1009.0
20260509063549 3 174 4.8 9.7 0.00 0.00 0.00 66 1009.1
20260509063051 3 156 4.8 9.7 0.00 0.00 0.00 66 1009.2
20260509062549 3 184 3.2 8.0 0.00 0.00 0.00 65 1009.2
20260509062053 4 157 4.8 8.0 0.00 0.00 0.00 65 1009.2
20260509061620 4 157 6.4 8.0 0.00 0.00 0.00 64 1009.3
20260509061048 4 140 3.2 8.0 0.00 0.00 0.00 64 1009.2
20260509060548 5 155 4.8 8.0 0.00 0.00 0.00 64 1009.3
20260509060107 5 171 3.2 11.3 0.00 0.00 0.00 63 1009.3
20260509055548 5 173 4.8 11.3 0.00 0.00 0.00 63 1009.4
20260509055050 5 178 3.2 14.5 0.00 0.00 0.00 63 1009.3
20260509054611 5 169 4.8 14.5 0.00 0.00 0.00 62 1009.3
20260509054047 5 189 6.4 11.3 0.00 0.00 0.00 62 1009.3
20260509053548 5 173 4.8 11.3 0.00 0.00 0.00 62 1009.4
20260509053058 6 173 6.4 11.3 0.00 0.00 0.00 62 1009.4
20260509052548 6 175 6.4 9.7 0.00 0.00 0.00 61 1009.4
20260509052048 6 166 4.8 11.3 0.00 0.00 0.00 61 1009.3
20260509051556 6 168 3.2 11.3 0.00 0.00 0.00 60 1009.5
20260509051048 6 188 4.8 9.7 0.00 0.00 0.00 59 1009.4
20260509050552 6 179 3.2 11.3 0.00 0.00 0.00 58 1009.6
20260509050057 6 171 3.2 11.3 0.00 0.00 0.00 58 1009.6
20260509045548 6 184 4.8 11.3 0.00 0.00 0.00 57 1009.6
20260509045048 6 195 4.8 14.5 0.00 0.00 0.00 57 1009.5
20260509044550 7 194 4.8 14.5 0.00 0.00 0.00 57 1009.6
20260509044048 7 215 4.8 17.7 0.00 0.00 0.00 56 1009.5
20260509043549 7 211 4.8 17.7 0.00 0.00 0.00 56 1009.6
20260509043052 7 186 4.8 16.1 0.00 0.00 0.00 56 1009.7
20260509042553 7 240 6.4 16.1 0.00 0.00 0.00 57 1009.7
20260509042049 7 196 4.8 16.1 0.00 0.00 0.00 56 1009.6
20260509041552 7 231 4.8 12.9 0.00 0.00 0.00 56 1009.6
20260509041049 7 205 6.4 12.9 0.00 0.00 0.00 56 1009.5
20260509040548 7 229 4.8 12.9 0.00 0.00 0.00 56 1009.5
20260509040124 7 227 3.2 11.3 0.00 0.00 0.00 56 1009.5
20260509035548 7 234 4.8 12.9 0.00 0.00 0.00 55 1009.7
20260509035049 7 229 4.8 12.9 0.00 0.00 0.00 55 1009.6
20260509034556 7 188 3.2 12.9 0.00 0.00 0.00 56 1009.6
20260509034048 7 209 3.2 14.5 0.00 0.00 0.00 55 1009.6